This demonstration page uses our WeatherBlox Daily Observations layout. Learn more.

39.92423, -83.80882

Hourly Observations for April 14, 2019

Temp ( °F °C ) Dew Point ( °F °C ) Humidity (%) Winds ( mph kmh ) Pressure ( in mb ) Visibility ( mi km ) Precip ( " mm )
12:56 am 00:56 Cloudy 55 12.8 37 2.8 51 51 NNE 9 15 29.97 1015 10 16.0934 0 0
1:56 am 01:56 Cloudy with Light Rain 50 10 37 2.8 61 61 NE 16 26 29.89 1012 10 16.0934 0 0.0254
2:56 am 02:56 Cloudy with Light Rain 49 9.4 35 1.7 59 59 NNE 12 19 29.88 1012 10 16.0934 0 0.0254
3:56 am 03:56 Cloudy with Light Rain 45 7.2 40 4.4 83 83 NE 15 24 29.86 1011 10 16.0934 0.03 0.762
4:56 am 04:56 Cloudy with Rain 43 6.1 41 5 93 93 NE 17 28 29.83 1010 9 14.48406 0 0
5:56 am 05:56 Cloudy with Light Rain 42 5.6 41 5 96 96 ENE 24 39 29.73 1007 10 16.0934 0 0
6:56 am 06:56 Cloudy with Light Rain 42 5.6 41 5 96 96 ENE 17 28 29.73 1007 9 14.48406 0 0.0254
7:40 am 07:40 Cloudy with Light Rain 43 6 43 6 100 100 ENE 15 24 29.75 1007 8 12.87472 0 0.0254
7:56 am 07:56 Cloudy with Light Rain 42 5.6 42 5.6 100 100 ENE 13 20 29.72 1007 9 14.48406 0.01 0.254
8:11 am 08:11 Cloudy with Rain 43 6 43 6 100 100 ENE 10 17 29.74 1007 7 11.26538 0 0
8:19 am 08:19 Cloudy with Rain 43 6 43 6 100 100 ENE 13 20 29.73 1007 3 4.82802 0 0
8:24 am 08:24 Cloudy with Light Rain 43 6 43 6 100 100 ENE 16 26 29.72 1006 1.75 2.816345 0 0
8:36 am 08:36 Cloudy with Light Rain 43 6 43 6 100 100 ENE 14 22 29.72 1006 2.5 4.02335 0 0
8:43 am 08:43 Cloudy with Light Rain 43 6 43 6 100 100 ENE 13 20 29.72 1006 5 8.0467 0 0
8:56 am 08:56 Cloudy with Light Rain 43 6.1 42 5.6 97 97 ENE 15 24 29.68 1005 7 11.26538 0 0
9:56 am 09:56 Cloudy 45 7.2 45 7.2 100 100 E 16 26 29.6 1003 10 16.0934 0.02 0.508
10:56 am 10:56 Cloudy 47 8.3 46 7.8 97 97 E 16 26 29.54 1000 10 16.0934 0 0
11:04 am 11:04 Cloudy 46 8 46 8 100 100 E 17 28 29.54 1000 10 16.0934 0 0
11:56 am 11:56 Cloudy 51 10.6 51 10.6 100 100 E 14 22 29.49 999 9 14.48406 0.01 0.254
12:56 pm 12:56 Cloudy 59 15 58 14.4 96 96 ESE 15 24 29.43 997 10 16.0934 0 0
1:28 pm 13:28 Cloudy 63 17 61 16 94 94 ESE 14 22 29.38 995 10 16.0934 0 0
1:56 pm 13:56 Cloudy 67 19.4 63 17.2 87 87 SE 8 13 29.37 995 10 16.0934 0 0
2:03 pm 14:03 Cloudy 70 21 64 18 83 83 SE 12 19 29.33 993 10 16.0934 0 0
2:56 pm 14:56 Mostly Cloudy 76 24.4 61 16.1 60 60 S 21 33 29.27 991 10 16.0934 0 0
3:28 pm 15:28 Mostly Cloudy 68 20 61 16 78 78 W 14 22 29.25 991 10 16.0934 0 0
3:46 pm 15:46 Windy with Storms Likely 64 18 61 16 88 88 WSW 21 33 29.27 991 10 16.0934 0 0.0254
3:56 pm 15:56 Mostly Cloudy 67 19.4 60 15.6 79 79 WSW 23 37 29.28 992 10 16.0934 0 0.0254
4:56 pm 16:56 Sunny 75 23.9 54 12.2 48 48 WSW 28 44 29.24 990 10 16.0934 0.01 0.254
5:56 pm 17:56 Mostly Cloudy with Light Rain 62 16.7 58 14.4 86 86 W 21 33 29.35 994 10 16.0934 0 0.0254
6:47 pm 18:47 Cloudy with Light Rain 59 15 57 14 94 94 W 16 26 29.35 994 10 16.0934 0 0
6:56 pm 18:56 Mostly Cloudy 59 15 56 13.3 90 90 W 20 31 29.37 995 10 16.0934 0 0
7:53 pm 19:53 Cloudy 55 13 54 12 94 94 WSW 20 31 29.4 996 10 16.0934 0 0
7:56 pm 19:56 Cloudy 56 13.3 53 11.7 90 90 WSW 23 37 29.41 996 10 16.0934 0 0
8:56 pm 20:56 Cloudy 51 10.6 48 8.9 89 89 W 31 50 29.45 997 10 16.0934 0 0
9:56 pm 21:56 Cloudy 45 7.2 43 6.1 93 93 W 22 35 29.52 1000 10 16.0934 0 0
10:56 pm 22:56 Cloudy 43 6.1 40 4.4 89 89 W 26 43 29.55 1001 10 16.0934 0.01 0.254
11:04 pm 23:04 Cloudy 43 6 39 4 87 87 W 20 31 29.58 1002 10 16.0934 0 0
11:38 pm 23:38 Cloudy 43 6 39 4 87 87 W 21 33 29.6 1002 10 16.0934 0 0.0254
11:56 pm 23:56 Cloudy with Light Rain 41 5 38 3.3 89 89 W 20 31 29.6 1002 10 16.0934 0 0.0254

Powered by AerisWeather